Flag for Switzerland Weather past 2 weeks in Oftringen, Aargau, Switzerland

Now
30 °F

Chilly.


Feels Like: 24 °F
Forecast: 27 / 37 °F
Wind: 6 mph from Southwest

Location: Wynau

Current Time: Jan 26, 2015 at 7:50:22 PM

Latest Report: Jan 26, 2015 at 6:00 PM


Visibility: N/A

Pressure: 30.30 "Hg

Humidity: 96%

Dew point: 29 °F

Location of OftringenLocation

Historic Weather in Oftringen — Graph

°F

Oftringen temperature yesterday

Maximum temperature yesterday: 35 °F (at 3:00 PM)
Minimum temperature yesterday: 29 °F (at 11:00 PM)
Average temperature yesterday: 32 °F

Past Weeks' High & Low Weather Summary

 TemperatureHumidityPressure
High51 °F (Jan 13, 4:00 PM)100% (Jan 15, 1:00 AM)30.55 "Hg (Jan 15, 1:00 AM)
Low24 °F (Jan 13, 9:00 AM)48% (Jan 13, 4:00 PM)29.72 "Hg (Jan 16, 4:00 PM)
Average34 °F88%30.10 "Hg
* Reported Jan 11 6:00 PM — Jan 26 6:00 PM, Oftringen, Weather by CustomWeather, © 2014

Note: Actual official high and low records may vary slightly from our data, if they occured in-between our weather recording intervals... More about our weather records

Advertising

Oftringen weather history for previous 24 hours

 ConditionsComfort  
Time TempWeatherWind HumidityBarometerVisibility
6:00 PM
Jan 26
30 °FChilly.6 mph96%30.30 "HgN/A
5:00 PM31 °FChilly.8 mph93%30.30 "HgN/A
4:00 PM31 °FChilly.8 mph89%30.32 "HgN/A
3:00 PM31 °FChilly.5 mph85%30.32 "HgN/A
2:00 PM31 °FChilly.7 mph87%30.35 "HgN/A
1:00 PM30 °FChilly.3 mph89%30.38 "HgN/A
12:00 PM30 °FChilly.5 mph90%30.40 "HgN/A
11:00 AM30 °FChilly.2 mph90%30.42 "HgN/A
10:00 AM29 °FChilly.2 mph91%30.43 "HgN/A
9:00 AM29 °FChilly.2 mph90%30.43 "HgN/A
8:00 AM29 °FChilly.2 mph91%30.43 "HgN/A
7:00 AM29 °FChilly.1 mph90%30.44 "HgN/A
6:00 AM28 °FChilly.No wind92%30.44 "HgN/A
5:00 AM29 °FChilly.1 mph90%30.44 "HgN/A
3:00 AM29 °FChilly.2 mph91%30.43 "HgN/A
2:00 AM29 °FChilly.2 mph91%30.44 "HgN/A
1:00 AM28 °FChilly.1 mph96%30.45 "HgN/A
12:00 AM28 °FChilly.No wind95%30.46 "HgN/A
11:00 PM
Jan 25
29 °FChilly.1 mph91%30.47 "HgN/A
9:00 PM31 °FChilly.No wind93%30.47 "HgN/A
8:00 PM31 °FChilly.No wind92%30.47 "HgN/A
7:00 PM32 °FChilly.1 mph91%30.47 "HgN/A
Weather by CustomWeather, © 2014

See weather overviewHow to use our weather pages